Starlink 5869

operational
NORAD ID: 57061 Int'l Des: 2023-088 Owner: SPXS Country: US Constellation: starlink
LEOCIRCULAR

About Starlink 5869

Description loading...

Live Position

Loading 3D Globe...

Upcoming Passes

Altitude History

Altitude vs Time

uPlot chart will show altitude changes over time

Two-Line Element Set

1 57061U 23088P 25352.85969578 .00000104 00000-0 22747-4 0 9995
2 57061 43.0022 186.4310 0001099 268.2886 91.7830 15.02533938137237
Epoch: Dec 18, 2025 • Age: 11 hours

Current Status

Altitude 563.2 km
Velocity 7.58 km/s
Sub-Earth Point -20.18°S, 168.06°W
Launch Date Jun 22, 2023
Age 2.4 years
Type internet

Technical Details

Classification Payload
Mass 305.00 kg
Dry Mass 290.00 kg
Total Mass 305.00 kg
Length 0.20 m
Diameter 2.80 m
Span 9.00 m
Shape Box + pan
Manufacturer SPXS
Bus Type Starlink
Phase Status In Orbit
Owner/State SPXS/US

Large Constellations

Loading constellations...